Japanese version Home page |
Updated on September 14, 2013 |
Profile |
Orbital ElementsEpoch 2013 Mar. 9.0 TT = JDT 2456360.5 T 2013 Mar. 1.17540 TT MPC q 2.6168154 (2000.0) P Q n 0.12796346 Peri. 354.64876 -0.45884653 +0.85947952 a 3.9001269 Node 247.87114 -0.80590930 -0.50935072 e 0.3290435 Incl. 14.07565 -0.37412573 +0.04309057 P 7.70 From 253 observations 1996 Nov. 18-2013 July 13, mean residual 0".7. Nongravitational parameters A1 = -2.03, A2 = +0.1411.
|
Finding Charts
|
Magnitudes Graphm1 = 13.0 + 5 log d + 10.0 log r
|
The orbital elements are published on M.P.E.C. 2013-O31.
|